Retour au catalogue

STARLINK-5100

ActifCommunicationsVLEO
NORAD 55495·PAYLOAD·🇺🇸 United States

Lancé Feb 2, 2023 depuis Cape Canaveral Space Force Station

Loading…

Prochains Passages (prochaines 24 heures)

TLE

FraisSource: CelesTrak SupGP

Époque: Sep 15, 2026, 02:37 UTC

1 55495C 23015AY  26258.10951389  .00034006  00000+0  12319-2 0  2586
2 55495  43.0025 331.7660 0001428 263.5857  90.1233 15.27556124    18

Suivez STARLINK-5100 en temps réel avec AllMySat

Download on the App Store